Showing default

LES 1, 1002

Orbit data source: Space-Track

LES 1, 1002 is a payload satellite owned by USAF SSD (US) in LEO that was launched on Thu, 11 Feb 1965 UTC via a TITAN IIIA launch vehicle from the Air Force Eastern Test Range (AFETR). Payload-class satellites include a variety of spacecraft equipped with specific instruments for various scientific and technological missions. These include communications satellites like Starlink; space stations such as the ISS; scientific satellites like the Hubble; Earth observation satellites from companies like Planet Labs, Umbra, and HawkEye 360; GPS; miniature CubeSats for education and research; and military/defense satellites.

Loading next visibility...
Identifier
1002, 1965-008C
Orbit
LEO
Country
Flag of USUS
Related business
Manufacturer
MIT-LL
Mission
Defense Communications
Bus & Motor
LES, STAR 13A
Mass
158 kg wet, 31 kg dry
Launch date (UTC)
1965-02-11 (61 years ago)
Launch vehicle
TITAN IIIA
Launch site
Air Force Eastern Test Range (AFETR)
Object type
Payload
Rocket body
Debris
Shape & HBR
Poly, 0.3 m
Radar Cross Section
0.411 m², Medium (>0.1 m² and < 1m²)

Expand to show TLE details & history
Last TLE update: 8 hours ago

TLE from 8 hours ago
0 LES 1
1 01002U 65008C   25258.51286732  .00000016  00000-0  98842-3 0  9999
2 01002  32.1486 335.4069 0015667   0.1991 359.8511  9.88354565189018
Epoch: 2025-09-15T12:18Z
TLE epoch observation values (Epoch: 2025-09-15T12:18:31.736Z)
Latitude
-0.00001°
Longitude
156.05821°
Altitude
2,778.371 km
Speed
6.605 km/s
True Right ascension
22h 21m 37s
True Declination
0° 00' 00"
Sunlit
Object was in full shadow at epoch
Visualization orbit readout
Latitude
Unknown
Longitude
Unknown
Altitude
Unknown
Speed
Unknown
Apparent Right ascension
Unknown
Apparent Declination
Unknown
Sunlit
N/A
Visualization observer readout
Local Sidereal Time
13:00:13
Azimuth
Unknown
Elevation
Unknown
Doppler factor
Unknown
Orbital elements
Apogee altitude
2,810.92 km
Perigee altitude
2,782.172 km
Semi-major axis
9,174.683 km
Eccentricity
0.00157
Inclination
32.1486°
RAAN
335.4069°
Arg. of periapsis
0.1991°
True anomaly
359.85063°
Mean anomaly
359.8511°
Eccentric anomaly
359.85087°
Mean motion
2.46977 °/min
Orbital period
145.76 mins
BSTAR
0.00098842
Loading maneuver chart data...
Computing Atmospheric mass density...
Loading historical data...
Loading historical data...
Loading historical data...
Loading historical data...
Loading historical data...
Loading historical data...
Loading historical data...
Other satellites on launch #8 in the year 1965 (1965-02-11 UTC)

Documentation

Showing up to 5 results
|